Home > Time Zones > World Clock > Weather > Egypt > Cairo > Past weeks

Flag Weather past 2 weeks in Cairo, Egypt

Now
63 °F

Fog.


Feels Like: 63 °F
Forecast: 57 / 73 °F
Wind: No wind

Location: Cairo Airport

Current Time: Nov 21, 2014 at 2:07:24 AM

Latest Report: Nov 21, 2014 at 1:30 AM


Visibility: 1 mi

Pressure: 30.01 "Hg

Humidity: 77%

Dew point: 55 °F

Location of CairoLocation

Historic Weather in Cairo — Graph

°F

Cairo temperature yesterday

Maximum temperature yesterday: 77 °F (at 1:00 PM)
Minimum temperature yesterday: 61 °F (at 12:30 AM)
Average temperature yesterday: 68 °F

Past Weeks' High & Low Weather Summary

 TemperatureHumidityPressure
High86 °F (Nov 8, 12:00 PM)100% (Nov 20, 8:00 AM)30.21 "Hg (Nov 20, 8:00 AM)
Low57 °F (Nov 19, 6:30 AM)16% (Nov 7, 3:00 PM)29.89 "Hg (Nov 13, 3:00 PM)
Average69 °F60%30.03 "Hg
* Reported Nov 6 1:00 AM — Nov 21 1:00 AM, Cairo, Weather by CustomWeather, © 2014

Note: Actual official high and low records may vary slightly from our data, if they occured in-between our weather recording intervals... More about our weather records

Advertising

Cairo weather history for previous 24 hours

 ConditionsComfort  
Time TempWeatherWind HumidityBarometerVisibility
1:00 AM
Nov 21
64 °FFog.No wind78%30.01 "Hg2 mi
12:30 AM64 °FClear.No wind78%30.01 "Hg4 mi
12:00 AM64 °FClear.No wind73%30.01 "Hg4 mi
11:30 PM
Nov 20
63 °FClear.No wind77%30.01 "Hg10 mi
11:00 PM64 °FClear.2 mph73%30.04 "Hg10 mi
10:30 PM64 °FClear.5 mph73%30.01 "Hg10 mi
10:00 PM64 °FClear.3 mph73%30.01 "Hg10 mi
9:30 PM64 °FClear.5 mph73%30.04 "Hg10 mi
9:00 PM66 °FClear.5 mph68%30.01 "Hg10 mi
8:30 PM68 °FClear.6 mph64%30.01 "Hg10 mi
8:00 PM70 °FClear.6 mph64%30.04 "Hg10 mi
7:30 PM70 °FClear.7 mph60%30.01 "Hg10 mi
7:00 PM70 °FClear.6 mph60%30.01 "Hg10 mi
6:30 PM72 °FClear.8 mph57%30.01 "Hg10 mi
6:00 PM72 °FClear.7 mph57%29.98 "Hg10 mi
5:30 PM73 °FClear.8 mph50%29.98 "Hg10 mi
5:00 PM73 °FClear.8 mph50%29.98 "Hg10 mi
4:30 PM75 °FPassing clouds.10 mph50%29.98 "HgN/A
4:00 PM75 °FPassing clouds.9 mph47%29.98 "HgN/A
3:30 PM75 °FScattered clouds.9 mph47%29.98 "HgN/A
3:00 PM77 °FPartly sunny.9 mph44%29.98 "HgN/A
2:30 PM77 °FPartly sunny.10 mph44%29.98 "HgN/A
2:00 PM77 °FPartly sunny.9 mph44%29.98 "HgN/A
1:30 PM77 °FScattered clouds.9 mph47%29.98 "HgN/A
1:00 PM77 °FScattered clouds.12 mph47%29.98 "HgN/A
12:30 PM75 °FScattered clouds.9 mph57%30.01 "Hg4 mi
12:00 PM75 °FScattered clouds.9 mph57%30.01 "Hg4 mi
11:30 AM72 °FFog.9 mph73%30.04 "Hg2 mi
11:00 AM72 °FFog.9 mph73%30.04 "Hg2 mi
10:00 AM68 °FFog.7 mph83%30.04 "Hg1 mi
9:30 AM66 °FFog.No wind88%30.07 "Hg1 mi
9:00 AM66 °FFog.No wind88%30.07 "Hg1 mi
8:30 AM63 °FFog.No wind100%30.04 "Hg1 mi
8:00 AM63 °FFog.No wind100%30.04 "Hg1 mi
7:30 AM61 °FFog.No wind94%30.04 "Hg1 mi
7:00 AM61 °FFog.No wind94%30.04 "Hg1 mi
6:30 AM61 °FFog.No wind94%30.01 "Hg1 mi
6:00 AM61 °FFog.No wind94%30.01 "Hg1 mi
5:30 AM61 °FFog.No wind94%30.01 "Hg1 mi
5:00 AM61 °FFog.No wind94%30.01 "Hg1 mi
4:30 AM61 °FFog.No wind94%30.01 "Hg1 mi
4:00 AM61 °FFog.No wind94%30.01 "Hg2 mi
3:00 AM63 °FFog.No wind88%30.04 "Hg2 mi
2:00 AM63 °FFog.No wind88%30.04 "Hg2 mi
Weather by CustomWeather, © 2014

See weather overviewHow to use our weather pages